Regional Weather Roundup
Issued by NWS Little Rock, AR

Home | Current Version | Previous Version | Text Only | Print | Product List | Glossary Off
Versions: 1 2 3 4 5 6 7 8 9 10 11 12 13 14 15 16 17 18 19 20 21 22 23 24 25 26 27 28 29 30 31 32 33 34 35 36 37 38 39 40 41 42 43 44 45 46 47 48 49 50

000
ASUS44 KLZK 052005
RWRLZK

WEATHER ROUNDUP FOR ARKANSAS
NATIONAL WEATHER SERVICE LITTLE ROCK AR
300 PM CDT TUE MAY 05 2015

NOTE: "FAIR" INDICATES FEW OR NO CLOUDS BELOW 12,000 FEET WITH NO
SIGNIFICANT WEATHER AND/OR OBSTRUCTIONS TO VISIBILITY.

ARZ001-003-010-029-052100-
NORTHWEST ARKANSAS

CITY           SKY/WX    TMP DP  RH WIND       PRES   REMARKS
FAYETTEVILLE   PTSUNNY   77  64  64 S13       30.09F
FORT SMITH     PTSUNNY   83  58  42 SE13G22   30.04F
HARRISON       PTSUNNY   78  57  48 S14       30.13F
BENTONVILLE    PTSUNNY   75  61  60 S8G20     30.10F
ROGERS         PTSUNNY   76  60  57 SE13      30.10F
SILOAM SPGS    PTSUNNY   79  61  53 S14G20    30.09F
HIGHFILL       LGT RAIN  77  57  50 S21       30.08
SPRINGDALE     PTSUNNY   77  57  50 S13G20    30.11F
$$

ARZ004-005-016-052100-
NORTH CENTRAL ARKANSAS

CITY           SKY/WX    TMP DP  RH WIND       PRES   REMARKS
BATESVILLE     SUNNY     84  54  34 S12G20    30.14F
FLIPPIN        MOSUNNY   81  55  41 SE8       30.11F
MTN HOME       MOSUNNY   82  57  42 SE8G17    30.13F
$$

ARZ040-041-052100-
WEST CENTRAL ARKANSAS

CITY           SKY/WX    TMP DP  RH WIND       PRES   REMARKS
MENA           PTSUNNY   81  61  50 SE6       30.08F
MOUNT IDA      MOSUNNY   80  57  45 SE12G22   30.08F
$$

ARZ009-017-025-026-028-052100-
NORTHEAST ARKANSAS

CITY           SKY/WX    TMP DP  RH WIND       PRES   REMARKS
CORNING        LGT RAIN  86  57  37 S15       30.15F HX  85
JONESBORO      PTSUNNY   85  54  34 S14       30.14F
NEWPORT        MOSUNNY   86  53  32 S16       30.15F
WALNUT RIDGE   MOSUNNY   82  54  36 S14G20    30.14F
BLYTHEVILLE    PTSUNNY   85  59  41 SE9       30.16F
NW BLYTHEVILLE PTSUNNY   84  55  37 SE6       30.15F
$$

ARZ022-023-033-042-044-052100-
CENTRAL ARKANSAS

CITY           SKY/WX    TMP DP  RH WIND       PRES   REMARKS
LITTLE ROCK    MOSUNNY   86  51  29 S15       30.11F
N LITTLE ROCK  MOSUNNY   83  56  40 SE9G20    30.11F
JACKSONVILLE   MOSUNNY   86  55  33 SE14G21   30.11F
SEARCY         MOSUNNY   85  56  37 S15G22    30.15F
HOT SPRINGS    MOSUNNY   82  55  39 S9        30.10F
RUSSELLVILLE   CLOUDY    82  55  39 SE9G17    30.10F
CLINTON        FAIR      82  57  42 SE6       30.14F
$$

ARZ036-052100-
EAST ARKANSAS

CITY           SKY/WX    TMP DP  RH WIND       PRES   REMARKS
WEST MEMPHIS   SUNNY     83  54  36 S6G21     30.15F
$$

ARZ050-053-066-070-073-052100-
SOUTHWEST ARKANSAS

CITY           SKY/WX    TMP DP  RH WIND       PRES   REMARKS
ARKADELPHIA    FAIR      84  58  41 SE8       30.09F
CAMDEN         MOSUNNY   86  54  32 NE9G16    30.08F
TEXARKANA      PTSUNNY   81  62  52 SE8G17    30.06F
EL DORADO      SUNNY     83  55  38 SE15      30.09F
DE QUEEN       MOSUNNY   82  63  52 SE14G20   30.03F
$$

ARZ056-057-069-052100-
SOUTHEAST ARKANSAS

CITY           SKY/WX    TMP DP  RH WIND       PRES   REMARKS
PINE BLUFF     SUNNY     84  54  35 SE13      30.12F
STUTTGART      MOSUNNY   86  54  32 SE13G21   30.14F
MONTICELLO     LGT RAIN  83  52  34 SE13G21   30.12F

$$




USA.gov is the U.S. government's official web portal to all federal, state and local government web resources and services.